| time (UTC) | temp C | wind direction | speed KPH | gust KPH | rain 1hr cm | rain 24hr cm | rain mn cm | humidity % | barometer mb |
| 20260507093051 | 13 | 254 | 1.6 | 6.4 | 0.00 | 0.00 | 0.00 | 55 | 1016.7 |
| 20260507092048 | 13 | 326 | 1.6 | 6.4 | 0.00 | 0.00 | 0.00 | 57 | 1016.7 |
| 20260507091045 | 13 | 341 | 1.6 | 9.7 | 0.00 | 0.00 | 0.00 | 57 | 1016.7 |
| 20260507090043 | 13 | 315 | 0.0 | 3.2 | 0.00 | 0.00 | 0.00 | 59 | 1016.7 |
| 20260507085040 | 13 | 305 | 1.6 | 6.4 | 0.00 | 0.00 | 0.00 | 59 | 1016.5 |
| 20260507084037 | 13 | 333 | 1.6 | 17.7 | 0.00 | 0.00 | 0.00 | 60 | 1016.6 |
| 20260507083035 | 13 | 203 | 0.0 | 3.2 | 0.00 | 0.00 | 0.00 | 59 | 1016.5 |
| 20260507082032 | 13 | 351 | 0.0 | 3.2 | 0.00 | 0.00 | 0.00 | 61 | 1016.5 |
| 20260507081029 | 12 | 270 | 0.0 | 3.2 | 0.00 | 0.00 | 0.00 | 62 | 1016.4 |
| 20260507080027 | 12 | 293 | 0.0 | 6.4 | 0.00 | 0.00 | 0.00 | 62 | 1016.3 |
| 20260507075024 | 12 | 316 | 0.0 | 3.2 | 0.00 | 0.00 | 0.00 | 62 | 1016.2 |
| 20260507074021 | 13 | 293 | 0.0 | 11.3 | 0.00 | 0.00 | 0.00 | 63 | 1016.1 |
| 20260507073019 | 12 | 347 | 1.6 | 6.4 | 0.00 | 0.00 | 0.00 | 66 | 1016.2 |
| 20260507072016 | 12 | 309 | 0.0 | 6.4 | 0.00 | 0.00 | 0.00 | 66 | 1016.2 |
| 20260507071114 | 12 | 0.0 | 3.2 | 0.00 | 0.00 | 0.00 | 68 | 1016.2 | |
| 20260507070111 | 12 | 315 | 0.0 | 3.2 | 0.00 | 0.00 | 0.00 | 67 | 1016.0 |
| 20260507065108 | 11 | 328 | 1.6 | 6.4 | 0.00 | 0.00 | 0.00 | 68 | 1015.9 |
| 20260507064106 | 11 | 0.0 | 3.2 | 0.00 | 0.00 | 0.00 | 69 | 1015.9 | |
| 20260507063103 | 11 | 0.0 | 3.2 | 0.00 | 0.00 | 0.00 | 69 | 1015.8 | |
| 20260507062100 | 11 | 293 | 0.0 | 3.2 | 0.00 | 0.00 | 0.00 | 70 | 1015.7 |
| 20260507061058 | 11 | 338 | 1.6 | 3.2 | 0.00 | 0.00 | 0.00 | 71 | 1015.8 |
| 20260507060055 | 10 | 347 | 0.0 | 3.2 | 0.00 | 0.00 | 0.00 | 72 | 1016.0 |
| 20260507055052 | 10 | 0 | 0.0 | 6.4 | 0.00 | 0.00 | 0.00 | 72 | 1016.0 |
| 20260507054050 | 9 | 336 | 1.6 | 3.2 | 0.00 | 0.00 | 0.00 | 74 | 1015.9 |
| 20260507053047 | 9 | 180 | 0.0 | 3.2 | 0.00 | 0.00 | 0.00 | 75 | 1015.8 |
| 20260507052044 | 9 | 338 | 0.0 | 3.2 | 0.00 | 0.00 | 0.00 | 75 | 1015.6 |
| 20260507051042 | 8 | 338 | 0.0 | 3.2 | 0.00 | 0.00 | 0.00 | 76 | 1015.5 |
| 20260507050039 | 8 | 0.0 | 3.2 | 0.00 | 0.00 | 0.00 | 78 | 1015.2 | |
| 20260507045036 | 8 | 158 | 0.0 | 3.2 | 0.00 | 0.00 | 0.00 | 78 | 1014.7 |
| 20260507044034 | 7 | 0.0 | 0.0 | 0.00 | 0.00 | 0.00 | 82 | 1014.5 | |
| 20260507043031 | 7 | 0.0 | 0.0 | 0.00 | 0.00 | 0.00 | 83 | 1014.4 | |
| 20260507042029 | 6 | 0.0 | 0.0 | 0.00 | 0.00 | 0.00 | 84 | 1014.3 | |
| 20260507041026 | 6 | 0.0 | 0.0 | 0.00 | 0.00 | 0.00 | 84 | 1014.2 | |
| 20260507040023 | 6 | 0.0 | 0.0 | 0.00 | 0.00 | 0.00 | 84 | 1014.0 | |
| 20260507035021 | 7 | 0.0 | 0.0 | 0.00 | 0.00 | 0.00 | 83 | 1013.9 | |
| 20260507034018 | 7 | 0.0 | 3.2 | 0.00 | 0.00 | 0.00 | 83 | 1013.9 | |
| 20260507033015 | 7 | 0.0 | 0.0 | 0.00 | 0.00 | 0.00 | 82 | 1013.6 | |
| 20260507032113 | 7 | 338 | 0.0 | 3.2 | 0.00 | 0.00 | 0.00 | 82 | 1013.6 |
| 20260507031111 | 7 | 0.0 | 3.2 | 0.00 | 0.00 | 0.00 | 82 | 1013.6 | |
| 20260507030108 | 7 | 0.0 | 3.2 | 0.00 | 0.00 | 0.00 | 81 | 1013.5 | |
| 20260507025105 | 8 | 0.0 | 3.2 | 0.00 | 0.00 | 0.00 | 80 | 1013.7 | |
| 20260507024103 | 8 | 0.0 | 3.2 | 0.00 | 0.00 | 0.00 | 80 | 1013.5 | |
| 20260507023100 | 8 | 352 | 0.0 | 6.4 | 0.00 | 0.00 | 0.00 | 80 | 1013.5 |
| 20260507022057 | 8 | 187 | 0.0 | 3.2 | 0.00 | 0.00 | 0.00 | 80 | 1013.3 |
| 20260507021055 | 8 | 270 | 0.0 | 3.2 | 0.00 | 0.00 | 0.00 | 80 | 1013.2 |
| 20260507020052 | 8 | 338 | 0.0 | 3.2 | 0.00 | 0.00 | 0.00 | 80 | 1013.1 |
| 20260507015049 | 8 | 106 | 1.6 | 6.4 | 0.00 | 0.00 | 0.00 | 80 | 1013.1 |
| 20260507014047 | 8 | 0.0 | 3.2 | 0.00 | 0.00 | 0.00 | 80 | 1012.9 | |
| 20260507013044 | 8 | 0.0 | 3.2 | 0.00 | 0.00 | 0.00 | 80 | 1012.9 | |
| 20260507012041 | 8 | 220 | 1.6 | 6.4 | 0.00 | 0.00 | 0.00 | 80 | 1012.8 |
| 20260507011038 | 8 | 0 | 0.0 | 3.2 | 0.00 | 0.00 | 0.00 | 80 | 1012.8 |
| 20260507010036 | 8 | 210 | 0.0 | 3.2 | 0.00 | 0.00 | 0.00 | 80 | 1012.8 |
| 20260507005033 | 8 | 315 | 0.0 | 6.4 | 0.00 | 0.00 | 0.00 | 80 | 1012.7 |
| 20260507004030 | 8 | 49 | 1.6 | 6.4 | 0.00 | 0.00 | 0.00 | 80 | 1012.7 |
| 20260507003028 | 8 | 340 | 1.6 | 3.2 | 0.00 | 0.00 | 0.00 | 79 | 1012.7 |
| 20260507002025 | 8 | 14 | 1.6 | 6.4 | 0.00 | 0.00 | 0.00 | 79 | 1012.6 |
| 20260507001023 | 9 | 45 | 0.0 | 3.2 | 0.00 | 0.00 | 0.00 | 79 | 1012.5 |
| 20260507000020 | 9 | 295 | 1.6 | 3.2 | 0.00 | 0.00 | 0.00 | 79 | 1012.7 |
| 20260506235017 | 9 | 234 | 0.0 | 3.2 | 0.00 | 0.00 | 0.00 | 79 | 1012.6 |
| 20260506234015 | 9 | 0.0 | 3.2 | 0.00 | 0.00 | 0.00 | 79 | 1012.7 | |
| 20260506233112 | 9 | 344 | 0.0 | 6.4 | 0.00 | 0.00 | 0.00 | 79 | 1012.6 |
| 20260506232109 | 9 | 326 | 0.0 | 3.2 | 0.00 | 0.00 | 0.00 | 79 | 1012.5 |
| 20260506231107 | 9 | 344 | 0.0 | 6.4 | 0.00 | 0.00 | 0.00 | 79 | 1012.5 |
| 20260506230104 | 9 | 360 | 0.0 | 3.2 | 0.00 | 0.00 | 0.00 | 79 | 1012.5 |
| 20260506225101 | 9 | 0.0 | 3.2 | 0.00 | 0.00 | 0.00 | 79 | 1012.4 | |
| 20260506224059 | 9 | 73 | 1.6 | 6.4 | 0.00 | 0.00 | 0.00 | 79 | 1012.4 |
| 20260506223056 | 9 | 135 | 0.0 | 6.4 | 0.00 | 0.00 | 0.00 | 79 | 1012.4 |
| 20260506222054 | 9 | 77 | 0.0 | 6.4 | 0.00 | 0.00 | 0.00 | 79 | 1012.2 |
| 20260506221051 | 9 | 0 | 0.0 | 6.4 | 0.00 | 0.00 | 0.00 | 79 | 1012.3 |
| 20260506220048 | 9 | 124 | 1.6 | 6.4 | 0.00 | 0.00 | 0.00 | 79 | 1012.2 |
| 20260506215046 | 9 | 0.0 | 3.2 | 0.00 | 0.00 | 0.00 | 78 | 1012.2 | |
| 20260506214043 | 9 | 0 | 0.0 | 3.2 | 0.00 | 0.00 | 0.00 | 78 | 1012.2 |
| 20260506213041 | 10 | 0 | 1.6 | 3.2 | 0.00 | 0.00 | 0.00 | 77 | 1012.0 |
| 20260506212038 | 10 | 241 | 1.6 | 3.2 | 0.00 | 0.00 | 0.00 | 76 | 1011.9 |
| 20260506211035 | 10 | 360 | 0.0 | 3.2 | 0.00 | 0.00 | 0.00 | 75 | 1012.1 |
| 20260506210033 | 10 | 164 | 0.0 | 3.2 | 0.00 | 0.00 | 0.00 | 75 | 1012.0 |
| 20260506205030 | 10 | 293 | 0.0 | 6.4 | 0.00 | 0.00 | 0.00 | 74 | 1012.0 |
| 20260506204027 | 10 | 0.0 | 3.2 | 0.00 | 0.00 | 0.00 | 73 | 1012.0 | |
| 20260506203025 | 10 | 351 | 1.6 | 6.4 | 0.00 | 0.00 | 0.00 | 72 | 1012.0 |
| 20260506202022 | 10 | 225 | 0.0 | 3.2 | 0.00 | 0.00 | 0.00 | 71 | 1011.9 |
| 20260506201019 | 10 | 23 | 0.0 | 3.2 | 0.00 | 0.00 | 0.00 | 70 | 1011.8 |
| 20260506200017 | 10 | 338 | 0.0 | 3.2 | 0.00 | 0.00 | 0.00 | 68 | 1011.9 |
| 20260506195114 | 11 | 0.0 | 6.4 | 0.00 | 0.00 | 0.00 | 66 | 1011.6 | |
| 20260506194112 | 11 | 338 | 0.0 | 3.2 | 0.00 | 0.00 | 0.00 | 66 | 1011.6 |
| 20260506193109 | 11 | 338 | 0.0 | 3.2 | 0.00 | 0.00 | 0.00 | 66 | 1011.5 |
| 20260506192101 | 11 | 0.0 | 0.0 | 0.00 | 0.00 | 0.00 | 65 | 1011.4 | |
| 20260506191058 | 11 | 0.0 | 3.2 | 0.00 | 0.00 | 0.00 | 60 | 1011.4 | |
| 20260506190055 | 11 | 300 | 0.0 | 3.2 | 0.00 | 0.00 | 0.00 | 58 | 1011.2 |
| 20260506185048 | 11 | 203 | 0.0 | 3.2 | 0.00 | 0.00 | 0.00 | 57 | 1011.1 |
| 20260506184045 | 11 | 338 | 0.0 | 3.2 | 0.00 | 0.00 | 0.00 | 57 | 1011.0 |
| 20260506183037 | 12 | 306 | 1.6 | 9.7 | 0.00 | 0.00 | 0.00 | 55 | 1011.0 |
| 20260506182034 | 12 | 301 | 1.6 | 6.4 | 0.00 | 0.00 | 0.00 | 54 | 1010.9 |
| 20260506181032 | 12 | 213 | 1.6 | 6.4 | 0.00 | 0.00 | 0.00 | 56 | 1010.9 |
| 20260506180023 | 12 | 171 | 1.6 | 9.7 | 0.00 | 0.00 | 0.00 | 62 | 1010.8 |
| 20260506175020 | 12 | 293 | 0.0 | 3.2 | 0.00 | 0.00 | 0.00 | 65 | 1010.8 |
| 20260506174112 | 12 | 270 | 0.0 | 3.2 | 0.00 | 0.00 | 0.00 | 66 | 1010.7 |
| 20260506173110 | 12 | 0 | 0.0 | 3.2 | 0.00 | 0.00 | 0.00 | 66 | 1010.6 |
| 20260506172101 | 12 | 0.0 | 0.0 | 0.00 | 0.00 | 0.00 | 66 | 1010.6 | |
| 20260506171058 | 12 | 0.0 | 0.0 | 0.00 | 0.00 | 0.00 | 66 | 1010.5 | |
| 20260506170055 | 12 | 0.0 | 0.0 | 0.00 | 0.00 | 0.00 | 67 | 1010.4 | |
| 20260506165047 | 13 | 0.0 | 0.0 | 0.00 | 0.00 | 0.00 | 66 | 1010.4 | |
| 20260506164044 | 13 | 0.0 | 3.2 | 0.00 | 0.00 | 0.00 | 64 | 1010.5 | |
| 20260506163036 | 13 | 0.0 | 3.2 | 0.00 | 0.00 | 0.00 | 62 | 1010.4 | |
| 20260506162033 | 13 | 23 | 0.0 | 3.2 | 0.00 | 0.00 | 0.00 | 61 | 1010.4 |
| 20260506161024 | 13 | 37 | 1.6 | 3.2 | 0.00 | 0.00 | 0.00 | 60 | 1010.6 |
| 20260506160022 | 13 | 203 | 0.0 | 3.2 | 0.00 | 0.00 | 0.00 | 60 | 1010.6 |
| 20260506155019 | 13 | 338 | 0.0 | 3.2 | 0.00 | 0.00 | 0.00 | 61 | 1010.6 |
| 20260506154111 | 13 | 0 | 0.0 | 6.4 | 0.00 | 0.00 | 0.00 | 58 | 1010.7 |
| 20260506153108 | 13 | 0.0 | 3.2 | 0.00 | 0.00 | 0.00 | 59 | 1010.7 | |
| 20260506152100 | 13 | 0.0 | 3.2 | 0.00 | 0.00 | 0.00 | 59 | 1010.8 | |
| 20260506151057 | 13 | 0.0 | 0.0 | 0.00 | 0.00 | 0.00 | 60 | 1010.8 | |
| 20260506150049 | 13 | 0.0 | 3.2 | 0.00 | 0.00 | 0.00 | 60 | 1010.8 | |
| 20260506145046 | 13 | 0.0 | 3.2 | 0.00 | 0.00 | 0.00 | 60 | 1010.8 | |
| 20260506144043 | 13 | 0 | 1.6 | 3.2 | 0.00 | 0.00 | 0.00 | 57 | 1010.8 |
| 20260506143035 | 13 | 11 | 0.0 | 3.2 | 0.00 | 0.00 | 0.00 | 57 | 1010.9 |
| 20260506142032 | 14 | 0.0 | 0.0 | 0.00 | 0.00 | 0.00 | 54 | 1010.9 | |
| 20260506141023 | 14 | 0 | 0.0 | 3.2 | 0.00 | 0.00 | 0.00 | 52 | 1010.9 |
| 20260506140021 | 13 | 342 | 3.2 | 6.4 | 0.00 | 0.00 | 0.00 | 49 | 1011.0 |
| 20260506135113 | 14 | 323 | 1.6 | 9.7 | 0.00 | 0.00 | 0.00 | 51 | 1010.8 |
| 20260506133108 | 14 | 311 | 1.6 | 3.2 | 0.00 | 0.00 | 0.00 | 48 | 1010.9 |
| 20260506132100 | 14 | 217 | 1.6 | 6.4 | 0.00 | 0.00 | 0.00 | 47 | 1010.8 |
| 20260506131057 | 14 | 355 | 0.0 | 6.4 | 0.00 | 0.00 | 0.00 | 48 | 1010.9 |
| 20260506130049 | 14 | 112 | 1.6 | 6.4 | 0.00 | 0.00 | 0.00 | 46 | 1010.8 |
| 20260506125047 | 14 | 1 | 1.6 | 6.4 | 0.00 | 0.00 | 0.00 | 45 | 1010.9 |
| 20260506124044 | 14 | 351 | 1.6 | 11.3 | 0.00 | 0.00 | 0.00 | 45 | 1010.8 |
| 20260506123036 | 14 | 20 | 1.6 | 9.7 | 0.00 | 0.00 | 0.00 | 44 | 1010.8 |
| 20260506122033 | 15 | 276 | 3.2 | 14.5 | 0.00 | 0.00 | 0.00 | 43 | 1010.8 |
| 20260506121025 | 15 | 153 | 3.2 | 9.7 | 0.00 | 0.00 | 0.00 | 44 | 1010.8 |
| 20260506120022 | 15 | 117 | 1.6 | 9.7 | 0.00 | 0.00 | 0.00 | 44 | 1010.7 |
| 20260506115019 | 14 | 301 | 1.6 | 9.7 | 0.00 | 0.00 | 0.00 | 43 | 1010.6 |
| 20260506114112 | 14 | 298 | 3.2 | 9.7 | 0.00 | 0.00 | 0.00 | 43 | 1010.6 |
| 20260506113109 | 14 | 232 | 3.2 | 11.3 | 0.00 | 0.00 | 0.00 | 43 | 1010.5 |
| 20260506112101 | 14 | 12 | 1.6 | 6.4 | 0.00 | 0.00 | 0.00 | 45 | 1010.5 |
| 20260506111058 | 13 | 256 | 1.6 | 9.7 | 0.00 | 0.00 | 0.00 | 45 | 1010.6 |
| 20260506110056 | 13 | 170 | 3.2 | 6.4 | 0.00 | 0.00 | 0.00 | 46 | 1010.6 |
| 20260506105048 | 13 | 353 | 3.2 | 11.3 | 0.00 | 0.00 | 0.00 | 46 | 1010.6 |
| 20260506104045 | 13 | 233 | 3.2 | 14.5 | 0.00 | 0.00 | 0.00 | 46 | 1010.6 |
| 20260506103037 | 13 | 9 | 1.6 | 9.7 | 0.00 | 0.00 | 0.00 | 47 | 1010.5 |
| 20260506102039 | 13 | 169 | 3.2 | 9.7 | 0.00 | 0.00 | 0.00 | 47 | 1010.6 |
| 20260506101031 | 13 | 305 | 1.6 | 6.4 | 0.00 | 0.00 | 0.00 | 49 | 1010.5 |
| 20260506100023 | 13 | 222 | 3.2 | 11.3 | 0.00 | 0.00 | 0.00 | 48 | 1010.5 |
| 20260506095020 | 12 | 149 | 3.2 | 9.7 | 0.00 | 0.00 | 0.00 | 48 | 1010.4 |
| 20260506094112 | 12 | 83 | 1.6 | 9.7 | 0.00 | 0.00 | 0.00 | 49 | 1010.4 |